Вернуться в каталог

SL-8 R/B

АктивенLEO
NORAD 17146·ROCKET BODY·🇷🇺 Russia

Запущен Nov 21, 1986 с Plesetsk Cosmodrome

Loading…

Ближайшие Пролёты (ближайшие 24 часа)

TLE

СвежийSource: Space-Track

Эпоха: Sep 14, 2026, 21:25 UTC

1 17146U 86092J   26257.89282534  .00000052  00000-0  60263-3 0  9994
2 17146  74.0146  46.8088 0124416   3.5014 164.5196 12.23672463778682

Отслеживайте SL-8 R/B в реальном времени с AllMySat

Download on the App Store